Voltar ao catálogo

SL-8 DEB

AtivoPO
NORAD 6277·DEBRIS·🇷🇺 Russia

Lançado Aug 16, 1972 de Plesetsk Cosmodrome

Loading…

Próximas Passagens (próximas 24 horas)

TLE

AtualizadoSource: Space-Track

Época: Sep 14, 2026, 04:00 UTC

1 06277U 72062C   26257.16728727  .00000041  00000-0  23415-4 0  9995
2 06277  82.8556 310.0745 0004645 284.5635 101.2007 13.83475575717790

Acompanhe SL-8 DEB em tempo real com AllMySat

Download on the App Store